User: anonymous   Login
Location: Newark
(47.0000°N, 7.6833°E)
Time: 21:22:20
(UTC+00:00)
Language:

BEESAT 2 - Orbit

View from above orbital plane
View from above orbital plane
View from above satellite
View from above satellite

Ground track
Ground track

The orbit data is extracted from the following two-line orbital elements,

1 39136U 13015G   19290.68688089 +.00000687 +00000-0 +44293-4 0  9993
2 39136 064.8703 012.5594 0028641 296.3050 063.5135 15.17074857358132
Epoch (UTC): 17 October 2019 16:29:06
Eccentricity: 0.0028641
inclination: 64.8703°
perigee height: 495 km
apogee height: 534 km
right ascension of ascending node: 12.5594°
argument of perigee: 296.3050°
revolutions per day: 15.17074857
mean anomaly at epoch: 63.5135°
orbit number at epoch: 35813

The dashed part of the orbit path shows where the satellite is in the earth's shadow,  

DLR